Stündliche Wetter Barra

Heute, 29 Oktober, Donnerstag

Zeit Temperatur Niederschläge Wind Luftdruck Luftfeuchtigkeit
00:00 +29°C° 0 mm 3 m/S 757 mmHg 63%
01:00 +28°C° 0 mm 3 m/S 757 mmHg 61%
02:00 +28°C° 0 mm 3 m/S 757 mmHg 58%
03:00 +28°C° 0 mm 3 m/S 756 mmHg 57%
04:00 +28°C° 0 mm 3 m/S 756 mmHg 55%
05:00 +28°C° 0 mm 3 m/S 756 mmHg 54%
06:00 +29°C° 0 mm 3 m/S 757 mmHg 53%
07:00 +30°C° 0 mm 3 m/S 757 mmHg 53%
08:00 +31°C° 0 mm 3 m/S 758 mmHg 53%
09:00 +34°C° 0 mm 3 m/S 758 mmHg 45%
10:00 +35°C° 0 mm 3 m/S 758 mmHg 38%
11:00 +37°C° 0 mm 3 m/S 758 mmHg 31%
12:00 +37°C° 0 mm 3 m/S 757 mmHg 30%
13:00 +38°C° 0 mm 3 m/S 757 mmHg 29%
14:00 +38°C° 0 mm 3 m/S 756 mmHg 28%
15:00 +36°C° 0 mm 3 m/S 756 mmHg 36%
16:00 +35°C° 0 mm 3 m/S 756 mmHg 45%
17:00 +33°C° 0 mm 4 m/S 756 mmHg 53%
18:00 +32°C° 0 mm 4 m/S 756 mmHg 58%
19:00 +30°C° 0 mm 4 m/S 757 mmHg 63%
20:00 +29°C° 0 mm 4 m/S 757 mmHg 68%
21:00 +29°C° 0 mm 3 m/S 757 mmHg 68%
22:00 +28°C° 0 mm 3 m/S 757 mmHg 67%
23:00 +28°C° 0 mm 2 m/S 757 mmHg 67%

Morgen, 30 Oktober, Freitag

Zeit Temperatur Niederschläge Wind Luftdruck Luftfeuchtigkeit
00:00 +28°C° 0 mm 2 m/S 757 mmHg 64%
01:00 +28°C° 0 mm 2 m/S 757 mmHg 61%
02:00 +28°C° 0 mm 2 m/S 756 mmHg 58%
03:00 +28°C° 0 mm 2 m/S 756 mmHg 58%
04:00 +27°C° 0 mm 2 m/S 756 mmHg 57%
05:00 +27°C° 0 mm 2 m/S 756 mmHg 56%
06:00 +28°C° 0 mm 2 m/S 756 mmHg 52%
07:00 +30°C° 0 mm 3 m/S 757 mmHg 48%
08:00 +31°C° 0 mm 3 m/S 757 mmHg 45%
09:00 +34°C° 0 mm 2 m/S 757 mmHg 38%
10:00 +36°C° 0 mm 2 m/S 757 mmHg 32%
11:00 +37°C° 0 mm 1 m/S 757 mmHg 25%
12:00 +39°C° 0 mm 2 m/S 757 mmHg 23%
13:00 +39°C° 0 mm 2 m/S 756 mmHg 21%
14:00 +40°C° 0 mm 2 m/S 755 mmHg 19%
15:00 +39°C° 0 mm 2 m/S 755 mmHg 24%
16:00 +37°C° 0 mm 3 m/S 755 mmHg 29%
17:00 +35°C° 0 mm 4 m/S 755 mmHg 33%
18:00 +34°C° 0 mm 4 m/S 756 mmHg 40%
19:00 +32°C° 0 mm 4 m/S 757 mmHg 46%
20:00 +30°C° 0 mm 3 m/S 757 mmHg 52%
21:00 +30°C° 0 mm 3 m/S 757 mmHg 53%
22:00 +29°C° 0 mm 3 m/S 757 mmHg 54%
23:00 +29°C° 0 mm 2 m/S 757 mmHg 55%

übermorgen, 31 Oktober, Samstag

Zeit Temperatur Niederschläge Wind Luftdruck Luftfeuchtigkeit
00:00 +29°C° 0 mm 3 m/S 757 mmHg 53%
01:00 +28°C° 0 mm 3 m/S 757 mmHg 52%
02:00 +28°C° 0 mm 3 m/S 757 mmHg 51%
03:00 +27°C° 0 mm 4 m/S 757 mmHg 48%
04:00 +27°C° 0 mm 4 m/S 756 mmHg 45%
05:00 +27°C° 0 mm 5 m/S 756 mmHg 42%
06:00 +28°C° 0 mm 5 m/S 757 mmHg 39%
07:00 +28°C° 0 mm 5 m/S 757 mmHg 36%
08:00 +29°C° 0 mm 5 m/S 758 mmHg 34%
09:00 +32°C° 0 mm 4 m/S 758 mmHg 31%
10:00 +35°C° 0 mm 4 m/S 758 mmHg 28%
11:00 +37°C° 0 mm 3 m/S 757 mmHg 25%
12:00 +38°C° 0 mm 2 m/S 757 mmHg 24%
13:00 +37°C° 0 mm 1 m/S 756 mmHg 23%
14:00 +39°C° 0 mm 1 m/S 755 mmHg 23%
15:00 +37°C° 0 mm 1 m/S 756 mmHg 27%
16:00 +37°C° 0 mm 2 m/S 756 mmHg 30%
17:00 +35°C° 0 mm 2 m/S 756 mmHg 34%
18:00 +34°C° 0 mm 3 m/S 756 mmHg 41%
19:00 +31°C° 0 mm 3 m/S 757 mmHg 47%
20:00 +30°C° 0 mm 3 m/S 757 mmHg 54%
21:00 +29°C° 0 mm 3 m/S 757 mmHg 58%
22:00 +29°C° 0 mm 3 m/S 757 mmHg 62%
23:00 +28°C° 0 mm 2 m/S 757 mmHg 66%

1 November, Sonntag

Zeit Temperatur Niederschläge Wind Luftdruck Luftfeuchtigkeit
00:00 +28°C° 0 mm 2 m/S 757 mmHg 66%
01:00 +28°C° 0 mm 2 m/S 756 mmHg 66%
02:00 +27°C° 0 mm 2 m/S 756 mmHg 66%
03:00 +27°C° 0 mm 2 m/S 756 mmHg 69%
04:00 +27°C° 0 mm 2 m/S 756 mmHg 72%
05:00 +26°C° 0 mm 2 m/S 756 mmHg 74%
06:00 +28°C° 0 mm 2 m/S 756 mmHg 69%
07:00 +29°C° 0 mm 2 m/S 757 mmHg 64%
08:00 +30°C° 0 mm 2 m/S 757 mmHg 59%
09:00 +32°C° 0 mm 2 m/S 757 mmHg 51%
10:00 +34°C° 0 mm 1 m/S 757 mmHg 42%
11:00 +36°C° 0 mm 1 m/S 757 mmHg 34%
12:00 +36°C° 0 mm 1 m/S 756 mmHg 32%
13:00 +38°C° 0 mm 2 m/S 755 mmHg 30%
14:00 +38°C° 0 mm 3 m/S 755 mmHg 29%
15:00 +37°C° 0 mm 3 m/S 755 mmHg 33%
16:00 +36°C° 0 mm 3 m/S 755 mmHg 38%
17:00 +35°C° 0 mm 3 m/S 755 mmHg 42%
18:00 +33°C° 0 mm 3 m/S 755 mmHg 47%
19:00 +32°C° 0 mm 4 m/S 756 mmHg 52%
20:00 +29°C° 0 mm 4 m/S 756 mmHg 57%
21:00 +29°C° 0 mm 4 m/S 756 mmHg 62%
22:00 +29°C° 0 mm 4 m/S 756 mmHg 66%
23:00 +28°C° 0 mm 4 m/S 757 mmHg 71%

2 November, Montag

Zeit Temperatur Niederschläge Wind Luftdruck Luftfeuchtigkeit
00:00 +28°C° 0 mm 3 m/S 756 mmHg 73%
01:00 +28°C° 0 mm 3 m/S 756 mmHg 74%
02:00 +27°C° 0 mm 3 m/S 756 mmHg 76%
03:00 +27°C° 0 mm 3 m/S 756 mmHg 77%
04:00 +27°C° 0 mm 3 m/S 755 mmHg 79%
05:00 +27°C° 0 mm 4 m/S 755 mmHg 80%
06:00 +28°C° 0 mm 3 m/S 756 mmHg 74%
07:00 +29°C° 0 mm 3 m/S 756 mmHg 67%
08:00 +30°C° 0 mm 3 m/S 757 mmHg 61%
09:00 +32°C° 0 mm 2 m/S 757 mmHg 51%
10:00 +35°C° 0 mm 2 m/S 757 mmHg 41%
11:00 +37°C° 0 mm 2 m/S 757 mmHg 30%
12:00 +38°C° 0 mm 2 m/S 756 mmHg 29%
13:00 +38°C° 0 mm 3 m/S 755 mmHg 28%
14:00 +39°C° 0 mm 3 m/S 755 mmHg 27%
15:00 +37°C° 0 mm 4 m/S 755 mmHg 37%
16:00 +35°C° 0 mm 4 m/S 755 mmHg 47%
17:00 +33°C° 0 mm 4 m/S 755 mmHg 58%
18:00 +32°C° 0 mm 4 m/S 756 mmHg 62%
19:00 +30°C° 0 mm 4 m/S 756 mmHg 66%
20:00 +29°C° 0 mm 4 m/S 757 mmHg 70%
21:00 +29°C° 0 mm 4 m/S 757 mmHg 67%
22:00 +29°C° 0 mm 4 m/S 757 mmHg 65%
23:00 +29°C° 0 mm 4 m/S 757 mmHg 63%

3 November, Dienstag

Zeit Temperatur Niederschläge Wind Luftdruck Luftfeuchtigkeit
00:00 +28°C° 0 mm 3 m/S 757 mmHg 61%
01:00 +28°C° 0 mm 3 m/S 756 mmHg 59%
02:00 +28°C° 0 mm 2 m/S 756 mmHg 57%
03:00 +27°C° 0 mm 2 m/S 756 mmHg 53%
04:00 +27°C° 0 mm 2 m/S 756 mmHg 49%
05:00 +27°C° 0 mm 2 m/S 756 mmHg 45%
06:00 +28°C° 0 mm 2 m/S 756 mmHg 42%
07:00 +29°C° 0 mm 2 m/S 756 mmHg 40%
08:00 +30°C° 0 mm 2 m/S 757 mmHg 37%
09:00 +32°C° 0 mm 2 m/S 757 mmHg 33%
10:00 +34°C° 0 mm 2 m/S 757 mmHg 29%
11:00 +35°C° 0 mm 1 m/S 756 mmHg 25%
12:00 +36°C° 0 mm 1 m/S 756 mmHg 25%
13:00 +36°C° 0 mm 1 m/S 755 mmHg 24%
14:00 +37°C° 0 mm 1 m/S 755 mmHg 24%
15:00 +36°C° 0 mm 1 m/S 755 mmHg 26%
16:00 +35°C° 0 mm 1 m/S 755 mmHg 29%
17:00 +34°C° 0 mm 1 m/S 755 mmHg 31%
18:00 +33°C° 0 mm 1 m/S 756 mmHg 34%
19:00 +31°C° 0 mm 2 m/S 756 mmHg 37%
20:00 +30°C° 0 mm 3 m/S 757 mmHg 40%
21:00 +29°C° 0 mm 2 m/S 757 mmHg 45%
22:00 +29°C° 0 mm 2 m/S 757 mmHg 50%
23:00 +28°C° 0 mm 2 m/S 757 mmHg 55%
Mehr zeigen